{"data":{"norad_id":53043,"epoch":"2026-09-19T18:18:07.290432Z","epoch_age_seconds":133152,"freshness":"FRESH","line1":"1 53043U 22077A   26262.76258438  .00000702  00000+0  24063-4 0  9991","line2":"2 53043  97.2846  77.5763 0001737  87.9117 272.2325 15.33439022230188","mean_motion":15.33439022,"eccentricity":0.0001737,"inclination_deg":97.2846,"raan_deg":77.5763,"arg_perigee_deg":87.9117,"mean_anomaly_deg":272.2325,"bstar":2.4063e-5,"rev_number":23018,"period_min":93.906570743313,"perigee_km":464.37221052223,"apogee_km":466.74971119383,"semimajor_km":6843.697960858,"source":"CELESTRAK","updated_at":"2026-09-20T09:00:40.149746Z"}}